Weather History for LIVP - February, 2013

Change the Weather History Date:

Thursday, February 14, 2013

  Actual Average Record
Temperature  
Mean Temperature 20 °F -  
Max Temperature 26 °F 29 °F 48 °F (1998)
Min Temperature 14 °F 20 °F 6 °F (2009)
Degree Days  
Heating Degree Days 45    
Moisture  
Dew Point 11 °F    
Average Humidity 61    
Maximum Humidity 74    
Minimum Humidity 31    
Precipitation  
Precipitation 0.00 in 0.04 in - ()
Sea Level Pressure  
Sea Level Pressure 29.83 in    
Wind  
Wind Speed 12 mph ()    
Max Wind Speed 21 mph    
Max Gust Speed -    
Visibility 7.6 miles    
Events      
Averages and records for this station are not official NWS values.
T = Trace of Precipitation, MM = Missing Value Source: Averaged Metar Reports

Daily Weather History Graph

Daily Weather History Graph

Search for Another Location

Airport or City:

Trip Planner

Search our weather history database for the weather conditions in past years. The results will help you decide how hot, cold, wet, or windy it might be!

Date:

Astronomy

Feb. 14, 2013 Rise Set
Actual Time 7:20 AM CET 5:40 PM CET
Civil Twilight 6:49 AM CET 6:11 PM CET
Nautical Twilight 6:14 AM CET 6:46 PM CET
Astronomical Twilight 5:39 AM CET 7:21 PM CET
Moon 8:55 AM CET (2/14) 10:46 PM CET (2/14)
Length of Visible Light 11h 21m
Length of Day
10h 20m
Waxing Crescent, 19% of the Moon is Illuminated
Feb 14
Waxing Crescent
Feb 17
First Quarter
Feb 25
Full
Mar 4
Last Quarter
Mar 11
New

Hourly Weather History & Observations

Time (CET) Temp. Windchill Dew Point Humidity Pressure Visibility Wind Dir Wind Speed Gust Speed Precip Events Conditions
12:55 AM 17.6 °F 0.9 °F 1.4 °F 49% 29.77 in 6.2 mi North 20.7 mph - N/A   Scattered Clouds
1:00 AM 18 °F - 1 °F 31%  in 31 mi North 20.7 mph - -   Partly Cloudy
1:55 AM 19.4 °F 3.6 °F 3.2 °F 49% 29.77 in 6.2 mi North 19.6 mph - N/A   Scattered Clouds
2:55 AM 19.4 °F 3.6 °F 5.0 °F 54% 29.77 in 6.2 mi North 19.6 mph - N/A   Scattered Clouds
3:55 AM 19.4 °F 4.5 °F 5.0 °F 54% 29.80 in 6.2 mi North 17.3 mph - N/A   Scattered Clouds
4:00 AM 19 °F - 5 °F 39%  in 25 mi North 17.3 mph - -   Partly Cloudy
4:55 AM 19.4 °F 5.0 °F 6.8 °F 58% 29.80 in 6.2 mi North 16.1 mph - N/A   Scattered Clouds
5:55 AM 19.4 °F 5.0 °F 8.6 °F 63% 29.83 in 6.2 mi North 16.1 mph - N/A   Scattered Clouds
6:55 AM 19.4 °F 5.0 °F 10.4 °F 68% 29.83 in 6.2 mi North 16.1 mph - N/A   Partly Cloudy
7:00 AM 19 °F - 10 °F 55%  in 31 mi North 16.1 mph - -   Scattered Clouds
7:55 AM 19.4 °F 4.1 °F 10.4 °F 68% 29.83 in 6.2 mi North 18.4 mph - N/A   Partly Cloudy
8:55 AM 19.4 °F 4.5 °F 10.4 °F 68% 29.86 in - North 17.3 mph - N/A   Clear
9:55 AM 21.2 °F 9.5 °F 12.2 °F 68% 29.86 in - North 11.5 mph - N/A   Clear
10:00 AM 21 °F - 13 °F 60%  in 31 mi North 11.5 mph - -   Scattered Clouds
10:55 AM 21.2 °F 10.1 °F 14.0 °F 74% 29.86 in - North 10.4 mph - N/A   Clear
11:55 AM 23.0 °F 13.9 °F 14.0 °F 68% 29.86 in - North 8.1 mph - N/A   Clear
12:55 PM 24.8 °F 19.1 °F 14.0 °F 64% 29.86 in - North 4.6 mph - N/A   Clear
1:00 PM 24 °F - 14 °F 55%  in 25 mi North 4.6 mph - -  
1:55 PM 24.8 °F - 14.0 °F 64% 29.86 in - Variable 1.2 mph - N/A   Clear
2:55 PM 26.6 °F - 15.8 °F 64% 29.83 in - Variable 1.2 mph - N/A   Clear
3:55 PM 26.6 °F 20.0 °F 15.8 °F 64% 29.83 in - NNW 5.8 mph - N/A   Clear
4:00 PM 26 °F - 15 °F 52%  in 19 mi NNW 5.8 mph - -  
4:55 PM 24.8 °F - 15.8 °F 69% 29.83 in - Variable 2.3 mph - N/A   Clear
5:55 PM 24.8 °F - 14.0 °F 64% 29.83 in - Variable 1.2 mph - N/A   Clear
6:55 PM 23.0 °F - 14.0 °F 68% 29.83 in - Calm Calm - N/A   Clear
7:00 PM 23 °F - 14 °F 55%  in 25 mi Calm Calm - -   Clear
7:55 PM 23.0 °F 18.4 °F 14.0 °F 68% 29.83 in - SSW 3.5 mph - N/A   Clear
8:55 PM 21.2 °F 12.6 °F 14.0 °F 74% 29.83 in - SSW 6.9 mph - N/A   Clear
9:55 PM 21.2 °F 10.9 °F 14.0 °F 74% 29.83 in - SSW 9.2 mph - N/A   Clear
10:00 PM 22 °F - 15 °F 62%  in 25 mi SSW 9.2 mph - -   Clear
10:55 PM 21.2 °F 10.1 °F 14.0 °F 74% 29.80 in - SSW 10.4 mph - N/A   Clear
11:55 PM 21.2 °F 9.5 °F 12.2 °F 68% 29.80 in - SSW 11.5 mph - N/A   Clear